MCX4153 KMCI-KOMA

Flight info

Callsign MCX4153
Flight time 0h 38m
Altitude 16000
Route CHIEF9 STJ MARWI4
Aircraft CRJ7/M-SDFGIRWY/S

Departure

Time 2026-04-20 23:34
Airport Kansas City International Airport (KMCI)

Arrival

Time 2026-04-21 00:13
Airport Eppley Airfield (KOMA)
Time Latitude Longitude Altitude Speed Heading
2026-04-20 22:44 39.30090 -94.71909 1012 ft 0 kts 171°
2026-04-20 23:23 39.30107 -94.71911 1012 ft 4 kts 181°
2026-04-20 23:23 39.30123 -94.71907 1012 ft 4 kts 205°
2026-04-20 23:23 39.30136 -94.71886 1012 ft 4 kts 275°
2026-04-20 23:23 39.30134 -94.71874 1012 ft 0 kts 283°
2026-04-20 23:25 39.30137 -94.71889 1012 ft 3 kts 283°
2026-04-20 23:25 39.30139 -94.71905 1012 ft 3 kts 283°
2026-04-20 23:26 39.30144 -94.71932 1012 ft 4 kts 283°
2026-04-20 23:26 39.30153 -94.71980 1012 ft 6 kts 283°
2026-04-20 23:26 39.30161 -94.72022 1013 ft 6 kts 283°
2026-04-20 23:26 39.30175 -94.72102 1012 ft 13 kts 283°
2026-04-20 23:27 39.30197 -94.72223 1012 ft 12 kts 283°
2026-04-20 23:27 39.30212 -94.72308 1012 ft 8 kts 283°
2026-04-20 23:27 39.30227 -94.72374 1013 ft 6 kts 313°
2026-04-20 23:27 39.30257 -94.72385 1013 ft 5 kts 358°
2026-04-20 23:28 39.30308 -94.72371 1013 ft 9 kts 13°
2026-04-20 23:28 39.30366 -94.72354 1013 ft 8 kts 13°
2026-04-20 23:28 39.30423 -94.72337 1012 ft 8 kts 13°
2026-04-20 23:28 39.30479 -94.72321 1012 ft 8 kts 13°
2026-04-20 23:29 39.30536 -94.72304 1012 ft 9 kts 13°
2026-04-20 23:29 39.30594 -94.72287 1012 ft 8 kts 13°
2026-04-20 23:29 39.30639 -94.72273 1012 ft 6 kts 13°
2026-04-20 23:29 39.30684 -94.72260 1012 ft 10 kts 13°
2026-04-20 23:30 39.30770 -94.72235 1012 ft 14 kts 13°
2026-04-20 23:30 39.30869 -94.72206 1013 ft 15 kts 13°
2026-04-20 23:30 39.30970 -94.72176 1013 ft 15 kts 14°
2026-04-20 23:30 39.31065 -94.72149 1012 ft 13 kts 12°
2026-04-20 23:31 39.31164 -94.72121 1012 ft 17 kts 13°
2026-04-20 23:31 39.31286 -94.72084 1012 ft 19 kts 13°
2026-04-20 23:31 39.31416 -94.72045 1012 ft 19 kts 13°
2026-04-20 23:31 39.31549 -94.72003 1012 ft 20 kts 13°
2026-04-20 23:32 39.31686 -94.71963 1012 ft 20 kts 13°
2026-04-20 23:32 39.31825 -94.71922 1013 ft 20 kts 13°
2026-04-20 23:32 39.31955 -94.71884 1013 ft 19 kts 13°
2026-04-20 23:32 39.32083 -94.71846 1013 ft 13 kts 13°
2026-04-20 23:33 39.32162 -94.71849 1013 ft 11 kts 323°
2026-04-20 23:33 39.32188 -94.71937 1013 ft 11 kts 282°
2026-04-20 23:33 39.32204 -94.72029 1014 ft 10 kts 279°
2026-04-20 23:33 39.32170 -94.72096 1014 ft 8 kts 194°
2026-04-20 23:34 39.32011 -94.72143 1014 ft 51 kts 193°
2026-04-20 23:34 39.31469 -94.72305 1014 ft 106 kts 193°
2026-04-20 23:34 39.30636 -94.72560 1148 ft 132 kts 193°
2026-04-20 23:34 39.29755 -94.72815 1729 ft 129 kts 193°
2026-04-20 23:35 39.28838 -94.73020 2212 ft 136 kts 192°
2026-04-20 23:35 39.27022 -94.73555 3325 ft 136 kts 201°
2026-04-20 23:35 39.26268 -94.74479 3405 ft 174 kts 251°
2026-04-20 23:36 39.26511 -94.76119 3778 ft 210 kts 300°
2026-04-20 23:36 39.27770 -94.77204 4429 ft 229 kts 341°
2026-04-20 23:36 39.29338 -94.77654 5279 ft 231 kts 343°
2026-04-20 23:36 39.30976 -94.78048 5803 ft 251 kts 345°
2026-04-20 23:37 39.32762 -94.78426 6297 ft 269 kts 346°
2026-04-20 23:37 39.34669 -94.78806 6874 ft 282 kts 346°
2026-04-20 23:37 39.36603 -94.79195 7688 ft 282 kts 346°
2026-04-20 23:37 39.38542 -94.79630 8531 ft 283 kts 345°
2026-04-20 23:38 39.40494 -94.80066 9311 ft 288 kts 346°
2026-04-20 23:38 39.42519 -94.80540 9592 ft 310 kts 346°
2026-04-20 23:38 39.44617 -94.81040 10644 ft 300 kts 345°
2026-04-20 23:38 39.46634 -94.81523 11710 ft 291 kts 346°
2026-04-20 23:39 39.48635 -94.81980 12485 ft 293 kts 347°
2026-04-20 23:39 39.50655 -94.82426 13192 ft 296 kts 347°
2026-04-20 23:39 39.52692 -94.82886 13915 ft 298 kts 346°
2026-04-20 23:39 39.54747 -94.83336 14544 ft 302 kts 347°
2026-04-20 23:40 39.56822 -94.83795 15170 ft 304 kts 346°
2026-04-20 23:40 39.58937 -94.84269 15608 ft 314 kts 347°
2026-04-20 23:40 39.61149 -94.84761 15816 ft 332 kts 347°
2026-04-20 23:40 39.63489 -94.85285 15914 ft 351 kts 347°
2026-04-20 23:41 39.65973 -94.85839 15960 ft 371 kts 347°
2026-04-20 23:41 39.68583 -94.86422 15982 ft 390 kts 348°
2026-04-20 23:41 39.71312 -94.87032 16008 ft 400 kts 348°
2026-04-20 23:41 39.74052 -94.87641 15997 ft 399 kts 347°
2026-04-20 23:42 39.76787 -94.88251 15994 ft 398 kts 347°
2026-04-20 23:42 39.79479 -94.88851 15984 ft 397 kts 347°
2026-04-20 23:42 39.82196 -94.89463 15984 ft 395 kts 347°
2026-04-20 23:42 39.84901 -94.90065 15976 ft 394 kts 347°
2026-04-20 23:43 39.87593 -94.90667 15974 ft 393 kts 347°
2026-04-20 23:43 39.90281 -94.91265 15968 ft 392 kts 347°
2026-04-20 23:43 39.92963 -94.91876 15973 ft 391 kts 347°
2026-04-20 23:43 39.95640 -94.92489 15966 ft 390 kts 347°
2026-04-20 23:44 39.98327 -94.93031 15957 ft 390 kts 349°
2026-04-20 23:44 40.00444 -94.93423 15951 ft 390 kts 348°
2026-04-20 23:44 40.02790 -94.93873 15948 ft 392 kts 348°
2026-04-20 23:44 40.05500 -94.94399 15946 ft 395 kts 348°
2026-04-20 23:45 40.08227 -94.94923 15941 ft 397 kts 348°
2026-04-20 23:45 40.10975 -94.95453 15934 ft 400 kts 348°
2026-04-20 23:45 40.13733 -94.95976 15935 ft 402 kts 348°
2026-04-20 23:45 40.16507 -94.96509 15947 ft 404 kts 348°
2026-04-20 23:46 40.19294 -94.97055 15943 ft 406 kts 348°
2026-04-20 23:46 40.22093 -94.97599 15936 ft 407 kts 348°
2026-04-20 23:46 40.24895 -94.98142 15934 ft 406 kts 348°
2026-04-20 23:46 40.27683 -94.98692 15931 ft 405 kts 348°
2026-04-20 23:47 40.30474 -94.99223 15932 ft 405 kts 349°
2026-04-20 23:47 40.33262 -94.99762 15932 ft 404 kts 348°
2026-04-20 23:47 40.35214 -95.00143 15934 ft 404 kts 348°
2026-04-20 23:47 40.37868 -95.00666 15943 ft 404 kts 348°
2026-04-20 23:48 40.40643 -95.01213 15938 ft 404 kts 348°
2026-04-20 23:48 40.43426 -95.01757 15936 ft 404 kts 348°
2026-04-20 23:48 40.46198 -95.02298 15931 ft 403 kts 348°
2026-04-20 23:48 40.48942 -95.02834 15934 ft 403 kts 348°
2026-04-20 23:49 40.51720 -95.03379 15934 ft 403 kts 348°
2026-04-20 23:49 40.54496 -95.03923 15924 ft 403 kts 348°
2026-04-20 23:49 40.57277 -95.04467 15767 ft 407 kts 348°
2026-04-20 23:49 40.60049 -95.05006 15352 ft 396 kts 348°
2026-04-20 23:50 40.62729 -95.05528 14939 ft 382 kts 348°
2026-04-20 23:50 40.65321 -95.06033 14530 ft 371 kts 348°
2026-04-20 23:50 40.67841 -95.06529 14128 ft 361 kts 348°
2026-04-20 23:50 40.70296 -95.07018 13700 ft 353 kts 348°
2026-04-20 23:51 40.72708 -95.07494 13255 ft 347 kts 347°
2026-04-20 23:51 40.75072 -95.07957 12814 ft 340 kts 347°
2026-04-20 23:51 40.77260 -95.08813 12360 ft 326 kts 326°
2026-04-20 23:51 40.79035 -95.10590 11919 ft 317 kts 315°
2026-04-20 23:52 40.80534 -95.12675 11517 ft 311 kts 307°
2026-04-20 23:52 40.81881 -95.14922 11096 ft 306 kts 304°
2026-04-20 23:52 40.83137 -95.17126 10698 ft 302 kts 304°
2026-04-20 23:52 40.84384 -95.19329 10321 ft 296 kts 304°
2026-04-20 23:53 40.85611 -95.21463 10139 ft 286 kts 305°
2026-04-20 23:53 40.86816 -95.23487 10058 ft 274 kts 306°
2026-04-20 23:53 40.87972 -95.25417 10024 ft 262 kts 306°
2026-04-20 23:53 40.89113 -95.27318 9535 ft 268 kts 305°
2026-04-20 23:54 40.90270 -95.29246 9130 ft 269 kts 305°
2026-04-20 23:54 40.91431 -95.31191 8716 ft 270 kts 304°
2026-04-20 23:54 40.92596 -95.33136 8332 ft 270 kts 304°
2026-04-20 23:54 40.93754 -95.35078 8074 ft 267 kts 304°
2026-04-20 23:55 40.94905 -95.37004 7972 ft 265 kts 304°
2026-04-20 23:55 40.96045 -95.38912 7932 ft 265 kts 304°
2026-04-20 23:55 40.97186 -95.40825 7898 ft 265 kts 304°
2026-04-20 23:55 40.98321 -95.42735 7882 ft 264 kts 304°
2026-04-20 23:56 40.99626 -95.44459 7873 ft 271 kts 326°
2026-04-20 23:56 41.00779 -95.45079 7886 ft 276 kts 338°
2026-04-20 23:56 41.02633 -95.45765 7893 ft 278 kts 340°
2026-04-20 23:56 41.04517 -95.46402 7875 ft 279 kts 341°
2026-04-20 23:57 41.06388 -95.47003 7636 ft 276 kts 341°
2026-04-20 23:57 41.08226 -95.47577 7416 ft 274 kts 341°
2026-04-20 23:57 41.10078 -95.48149 7167 ft 272 kts 341°
2026-04-20 23:57 41.11909 -95.48703 6923 ft 269 kts 341°
2026-04-20 23:58 41.13761 -95.49248 6675 ft 268 kts 342°
2026-04-20 23:58 41.15577 -95.49786 6448 ft 267 kts 342°
2026-04-20 23:58 41.17364 -95.50312 6187 ft 266 kts 342°
2026-04-20 23:58 41.19167 -95.50845 5919 ft 267 kts 341°
2026-04-20 23:59 41.20983 -95.51389 5676 ft 269 kts 342°
2026-04-20 23:59 41.22802 -95.51931 5444 ft 267 kts 342°
2026-04-20 23:59 41.24609 -95.52455 5236 ft 264 kts 342°
2026-04-20 23:59 41.26413 -95.52979 4986 ft 272 kts 342°
2026-04-21 00:00 41.28311 -95.53543 4764 ft 287 kts 342°
2026-04-21 00:00 41.30299 -95.54152 4551 ft 299 kts 341°
2026-04-21 00:00 41.32296 -95.54787 4317 ft 290 kts 341°
2026-04-21 00:00 41.34232 -95.55394 4085 ft 284 kts 341°
2026-04-21 00:01 41.36138 -95.55995 3858 ft 277 kts 342°
2026-04-21 00:01 41.37996 -95.56590 3632 ft 272 kts 341°
2026-04-21 00:01 41.39825 -95.57158 3402 ft 267 kts 342°
2026-04-21 00:01 41.41617 -95.57732 3196 ft 259 kts 342°
2026-04-21 00:02 41.43319 -95.58267 3117 ft 242 kts 342°
2026-04-21 00:02 41.44889 -95.58750 3071 ft 221 kts 342°
2026-04-21 00:02 41.46347 -95.59206 3050 ft 216 kts 340°
2026-04-21 00:02 41.47737 -95.59901 3005 ft 207 kts 314°
2026-04-21 00:03 41.48412 -95.61369 3036 ft 176 kts 276°
2026-04-21 00:03 41.48718 -95.62910 3021 ft 168 kts 274°
2026-04-21 00:03 41.48973 -95.64402 2971 ft 162 kts 273°
2026-04-21 00:03 41.49205 -95.65847 2961 ft 158 kts 272°
2026-04-21 00:04 41.49444 -95.67291 2956 ft 160 kts 272°
2026-04-21 00:04 41.49697 -95.68751 2997 ft 164 kts 271°
2026-04-21 00:04 41.49944 -95.70279 3027 ft 173 kts 271°
2026-04-21 00:04 41.50188 -95.71889 3042 ft 179 kts 272°
2026-04-21 00:05 41.50416 -95.73539 3050 ft 183 kts 272°
2026-04-21 00:05 41.50666 -95.75219 3060 ft 186 kts 272°
2026-04-21 00:05 41.50905 -95.76922 3058 ft 188 kts 272°
2026-04-21 00:05 41.51154 -95.78595 3072 ft 179 kts 272°
2026-04-21 00:06 41.51372 -95.80193 3035 ft 172 kts 272°
2026-04-21 00:06 41.51578 -95.81713 3014 ft 166 kts 272°
2026-04-21 00:06 41.51782 -95.83198 2968 ft 160 kts 271°
2026-04-21 00:06 41.51908 -95.84697 2961 ft 164 kts 255°
2026-04-21 00:07 41.51308 -95.85906 2973 ft 161 kts 217°
2026-04-21 00:07 41.50408 -95.86844 3007 ft 162 kts 215°
2026-04-21 00:07 41.49498 -95.87674 3031 ft 156 kts 213°
2026-04-21 00:07 41.48600 -95.88460 3019 ft 153 kts 212°
2026-04-21 00:08 41.47593 -95.88847 3015 ft 152 kts 188°
2026-04-21 00:08 41.46546 -95.89015 3028 ft 152 kts 189°
2026-04-21 00:08 41.45855 -95.89134 3012 ft 152 kts 189°
2026-04-21 00:08 41.44792 -95.89287 2998 ft 155 kts 188°
2026-04-21 00:09 41.43714 -95.89382 2998 ft 153 kts 185°
2026-04-21 00:09 41.42697 -95.89410 3029 ft 138 kts 184°
2026-04-21 00:09 41.41477 -95.89414 2973 ft 131 kts 184°
2026-04-21 00:09 41.40880 -95.89414 2825 ft 128 kts 184°
2026-04-21 00:10 41.40006 -95.89427 2651 ft 123 kts 183°
2026-04-21 00:10 41.39147 -95.89412 2486 ft 129 kts 185°
2026-04-21 00:10 41.38238 -95.89423 2319 ft 131 kts 185°
2026-04-21 00:10 41.37313 -95.89426 2164 ft 135 kts 185°
2026-04-21 00:11 41.36395 -95.89432 2007 ft 129 kts 184°
2026-04-21 00:11 41.35493 -95.89465 1832 ft 130 kts 182°
2026-04-21 00:11 41.34583 -95.89438 1664 ft 132 kts 180°
2026-04-21 00:11 41.33659 -95.89434 1469 ft 134 kts 181°
2026-04-21 00:12 41.32731 -95.89420 1263 ft 134 kts 185°
2026-04-21 00:12 41.31811 -95.89455 1103 ft 127 kts 182°
2026-04-21 00:12 41.30984 -95.89457 986 ft 104 kts 183°
2026-04-21 00:12 41.30402 -95.89462 987 ft 64 kts 180°
2026-04-21 00:13 41.30099 -95.89462 983 ft 33 kts 181°
2026-04-21 00:13 41.29892 -95.89462 985 ft 23 kts 180°
2026-04-21 00:13 41.29760 -95.89465 985 ft 17 kts 180°
2026-04-21 00:13 41.29658 -95.89474 991 ft 12 kts 211°
2026-04-21 00:14 41.29633 -95.89554 986 ft 7 kts 260°
2026-04-21 00:14 41.29609 -95.89604 985 ft 7 kts 208°
2026-04-21 00:14 41.29573 -95.89630 987 ft 6 kts 222°
2026-04-21 00:14 41.29562 -95.89680 983 ft 6 kts 285°
2026-04-21 00:15 41.29591 -95.89717 985 ft 6 kts 331°
2026-04-21 00:15 41.29628 -95.89756 985 ft 7 kts 297°
2026-04-21 00:15 41.29641 -95.89819 984 ft 6 kts 270°
2026-04-21 00:15 41.29641 -95.89873 983 ft 5 kts 270°
2026-04-21 00:16 41.29646 -95.89910 983 ft 3 kts 289°
2026-04-21 00:16 41.29655 -95.89929 989 ft 2 kts 308°
2026-04-21 00:16 41.29674 -95.89952 985 ft 6 kts 329°
2026-04-21 00:16 41.29721 -95.89967 986 ft 7 kts 359°
2026-04-21 00:17 41.29759 -95.89963 985 ft 3 kts 35°
2026-04-21 00:17 41.29767 -95.89942 986 ft 4 kts 79°
2026-04-21 00:17 41.29768 -95.89911 983 ft 3 kts 90°
2026-04-21 00:17 41.29768 -95.89896 983 ft 1 kts 90°
2026-04-21 00:18 41.29768 -95.89891 983 ft 0 kts 90°